[Date Prev][Date Next][Thread Prev][Thread Next] - [Date Index][Thread Index][Author Index]
2 Line ISS Keps 5-20
- Subject: [sarex] 2 Line ISS Keps 5-20
- From: "Dave Larsen PhD" <doc@xxxxxxxxxxx>
- Date: Fri, 19 May 2006 20:04:13 -0700
ISS
1 25544U 98067A 06139.96704388 .00011372 00000-0 77384-4 0 9643
2 25544 051.6376 332.7742 0009084 220.5874 274.9684 15.75431160428712
----
Via the sarex mailing list at AMSAT.ORG courtesy of AMSAT-NA.
To unsubscribe, send "unsubscribe sarex" to Majordomo@amsat.org
AMSAT Home